Location: Kaikalui
(16.5250°N, 81.1500°E)
Time: 15:36:06
(UTC+00:00)

CZ-3 R/B - Pass Details

Date: 14 April 2026
Orbit: 564 x 9991 km, 28.2° (Epoch: 11 May)

Event Time Altitude Azimuth Distance (km) Brightness Sun altitude
Exits shadow 21:57:47 33° 279° (W) 6,095 5.1 -33.6°
Maximum altitude 22:10:18 57° 340° (NNW) 3,021 3.8 -30.8°
Drops below altitude 10° 22:19:28 10° 59° (ENE) 3,464 5.3 -28.8°
Sets 22:21:27 0° 65° (ENE) 4,031 6.0 -28.3°
